Simultaneous Nadir Overpasses (SNOs) Predictions

Prediction of SNOs between FY3D and AQUA Satellite Orbit:

Table of predicted SNOs for the next 14.0 days since TLE Epoch: 1/18/2020
Index Date (FY3D) Time (FY3D) Lat,Lon (FY3D) SZA (FY3D ) Date (AQUA) Time (AQUA) Lat,Lon (AQUA) SZA (AQUA ) Distance(km) Time Diff (sec)
1 01/20/2020 08:05:45 54.11, -86.94 138.48 01/20/2020 08:06:58 54.04, -86.44 138.17 33.71 73
2 01/20/2020 08:51:41 -70.20, 94.51 56.52 01/20/2020 08:51:45 -70.20, 94.46 56.51 2.13 4
3 01/20/2020 09:41:42 72.41, -94.29 121.21 01/20/2020 09:40:29 72.41, -94.29 121.28 0.29 73
4 01/23/2020 01:08:26 -69.15,-151.14 55.98 01/23/2020 01:08:34 -69.16,-151.09 56.01 2.30 8
5 01/23/2020 01:58:08 72.36, 21.50 120.74 01/23/2020 01:57:00 72.35, 21.49 120.81 0.39 68
6 01/25/2020 17:24:50 -69.15, -35.24 56.54 01/25/2020 17:25:03 -69.15, -35.21 56.57 1.31 13
7 01/25/2020 18:14:32 72.35, 137.39 120.17 01/25/2020 18:13:29 72.34, 137.35 120.24 1.39 63
8 01/28/2020 09:41:14 -69.20, 80.73 57.21 01/28/2020 09:41:32 -69.20, 80.73 57.23 0.07 18
9 01/28/2020 10:31:11 71.62,-108.09 120.31 01/28/2020 10:30:12 71.63,-108.02 120.35 2.63 59
10 01/31/2020 01:57:37 -69.30,-163.23 57.97 01/31/2020 01:58:00 -69.29,-163.27 57.98 1.78 23




NCC Satellite Simultaneous Nadir Overpasses (SNOs) Prediction Service
